Regional Weather Roundup
Issued by NWS

Home | Current Version | Previous Version | Graphics & Text | Print | Product List | Glossary Off
Versions: 1 2 3 4 5 6 7 8 9 10 11 12 13 14 15 16 17 18 19 20 21 22 23 24 25 26 27 28 29 30 31 32 33 34 35 36 37 38 39 40 41 42 43 44 45 46 47 48 49 50

236
ASUS43 KTOP 192059
RWRKS

WEATHER ROUNDUP FOR KANSAS
NATIONAL WEATHER SERVICE GOODLAND KS
300 PM CST THU JAN 19 2017

NOTE:  "FAIR" INDICATES FEW OR NO CLOUDS BELOW 12,000 FEET WITH NO
SIGNIFICANT WEATHER AND/OR OBSTRUCTIONS TO VISIBILITY.

KSZ001>006-013>018-027>032-041>047-192200-
NORTHWEST KANSAS

CITY           SKY/WX    TMP DP  RH WIND       PRES   REMARKS
GOODLAND       SUNNY     41  35  79 CALM      29.53F
HAYS           CLOUDY    45  43  93 SE9       29.58F
HILL CITY      CLOUDY    47  42  83 SE8       29.58S
RUSSELL        CLOUDY    46  44  93 SE9       29.57F FOG
$$

KSZ061>065-074>080-084>089-192200-
SOUTHWEST KANSAS

CITY           SKY/WX    TMP DP  RH WIND       PRES   REMARKS
DODGE CITY     CLOUDY    45  38  76 W5        29.55F
ELKHART          N/A     53  25  33 NW10        N/A
GARDEN CITY    CLOUDY    43  38  82 CALM      29.55S
GREAT BEND       N/A     47  43  86 S9        29.58S
LIBERAL        CLOUDY    41  37  87 N9        29.56S
$$

KSZ066>073-081>083-090>101-192200-
SOUTHEAST KANSAS

CITY           SKY/WX    TMP DP  RH WIND       PRES   REMARKS
CHANUTE        CLOUDY    50  46  86 SE10      29.65F
COFFEYVILLE    CLOUDY    52  47  83 S10       29.65F
HUTCHINSON     CLOUDY    48  45  89 SE8       29.58F
MEDICINE LODGE   N/A     48  41  76 S9        29.56S
NEWTON         CLOUDY    47  45  93 SE13      29.60F
PARSONS        CLOUDY    52  47  83 SE8       29.66F
WICHITA INTL   CLOUDY    52  45  77 SE8       29.58F
WICHITA JABRA  CLOUDY    49  45  86 E10       29.59S
WINFIELD       CLOUDY    53  45  74 SE15      29.59F
$$

KSZ007>012-019>026-033>040-048>060-102>105-192200-
NORTHEAST KANSAS

CITY           SKY/WX    TMP DP  RH WIND       PRES   REMARKS
CONCORDIA      CLOUDY    44  44 100 SE10      29.61F FOG
EMPORIA        CLOUDY    46  45  96 SE12      29.62F FOG
LAWRENCE       CLOUDY    47  46  97 E9        29.67F
MANHATTAN      CLOUDY    48  44  86 SE7       29.64S
OLATHE IND     CLOUDY    47  46  97 SE7       29.67F FOG
OLATHE EXE     CLOUDY    46  46 100 S7        29.67F FOG
SALINA         CLOUDY    48  45  89 E9        29.61F
TOPEKA BILLARD CLOUDY    48  44  86 SE7       29.66F
TOPEKA FORBES  CLOUDY    48  45  89 SE9       29.66F
$$




USA.gov is the U.S. government's official web portal to all federal, state and local government web resources and services.